This is the latest recevied weather packets stored in our database for station/object KB9YVI-11. If no packets are shown the sender has not sent any weather packets the latest 10 day(s).
| Time | Temp. | Humidity | Pressure | Rain* | Wind** | Luminosity | Snow |
|---|---|---|---|---|---|---|---|
| 1777833034 | 16.67° C | 71% | 0 hPa | 0 mm | - | - | - |
| 1777831836 | 16.11° C | 72% | 0 hPa | 0 mm | - | - | - |
| 1777831536 | 16.11° C | 71% | 0 hPa | 0 mm | - | - | - |
| 1777831236 | 16.11° C | 74% | 0 hPa | 0 mm | - | - | - |
| 1777830336 | 15.56° C | 72% | 0 hPa | 0 mm | - | - | - |
| 1777830036 | 15.56° C | 74% | 0 hPa | 0 mm | - | - | - |
| 1777829736 | 15.56° C | 73% | 0 hPa | 0 mm | - | - | - |
| 1777829434 | 16.11° C | 71% | 0 hPa | 0 mm | - | - | - |
| 1777829136 | 16.11° C | 71% | 0 hPa | 0 mm | - | - | - |
| 1777828836 | 15.56° C | 73% | 0 hPa | 0 mm | - | - | - |
| 1777828236 | 15.56° C | 70% | 0 hPa | 0 mm | - | - | - |
| 1777827936 | 15.56° C | 73% | 0 hPa | 0 mm | - | - | - |
| 1777827636 | 15° C | 72% | 0 hPa | 0 mm | - | - | - |
| 1777827036 | 15.56° C | 72% | 0 hPa | 0 mm | - | - | - |
| 1777826736 | 15.56° C | 73% | 0 hPa | 0 mm | - | - | - |
| 1777826436 | 15° C | 74% | 0 hPa | 0 mm | - | - | - |
| 1777826136 | 14.44° C | 72% | 0 hPa | 0 mm | - | - | - |
| 1777825835 | 14.44° C | 72% | 0 hPa | 0 mm | - | - | - |
| 1777825536 | 14.44° C | 72% | 0 hPa | 0 mm | - | - | - |
| 1777825236 | 14.44° C | 72% | 0 hPa | 0 mm | - | - | - |
| 1777824936 | 15° C | 73% | 0 hPa | 0 mm | - | - | - |
| 1777824336 | 15° C | 70% | 0 hPa | 0 mm | - | - | - |
| 1777823736 | 15° C | 73% | 0 hPa | 0 mm | - | - | - |
| 1777823436 | 14.44° C | 73% | 0 hPa | 0 mm | - | - | - |
| 1777823136 | 13.89° C | 75% | 0 hPa | 0 mm | - | - | - |
* Rain latest hour (hover to see other rain measurements)
** Current wind speed in m/s (hover to see current wind gust speed)